User: anonymous   Login
Location: La Pernelle
(49.6188°N, 1.2999°W)
Time: 02:17:56
(UTC+00:00)
Language:

Cosmos 1461 - Orbit

View from above orbital plane
View from above orbital plane
View from above satellite
View from above satellite

Ground track
Ground track

The orbit data is extracted from the following two-line orbital elements,

1 14064U 83044A   21259.43265990  .00000432  00000-0  50681-4 0  9994
2 14064  65.0008 155.6989 0091853 160.0180 200.4572 14.95336737955255
Epoch (UTC): 16 September 2021 10:23:01
Eccentricity: 0.0091853
inclination: 65.0008°
perigee height: 517 km
apogee height: 645 km
right ascension of ascending node: 155.6989°
argument of perigee: 160.0180°
revolutions per day: 14.95336737
mean anomaly at epoch: 200.4572°
orbit number at epoch: 95525

The dashed part of the orbit path shows where the satellite is in the earth's shadow,  

DLR